Tracking 19245 objects as of 18-Aug-2018
HD Live streaming from Space Station
objects crossing your sky now

RITE TARGET 2

Track RITE TARGET 2 now!
10-day predictions
RITE TARGET 2 is classified as:


NORAD ID: 28455
Int'l Code: 2002-056G
Perigee: 782.8 km
Apogee: 799.4 km
Inclination: 98.4 °
Period: 100.5 minutes
Semi major axis: 7162 km
RCS: 0.0143 m2 (small)
Launch date: December 14, 2002
Source: Japan (JPN)
Launch site: TANEGASHIMA SPACE CENTER (TNSTA)
aabbcc
Your satellite tracking list
Your tracking list is empty




NASA's NSSDC Master Catalog

Two Line Element Set (TLE):
1 28455U 02056G   18230.13358358  .00000085  00000-0  47220-4 0  9999
2 28455  98.3862 190.3888 0011638  36.1131 324.0838 14.32329460763315
Source of the keplerian elements: AFSPC